Regional Weather Roundup
Issued by NWS Midland/Odessa, TX

Skip options and go directly to product.
Home | Oldest Version | Previous Version | Current Version | All | Text Only | Save Text | Print | Product List | Glossary Off

Skip product version selection by date and time.   

737
ASUS44 KMAF 250710
RWRMAF
MIDLAND AREA WEATHER ROUNDUP
NATIONAL WEATHER SERVICE MIDLAND TX
200 AM CDT WED MAY 25 2016

...IN SOUTHWEST TEXAS AND SOUTHEAST NEW MEXICO...

CITY           SKY/WX    TMP DP  RH WIND       PRES   REMARKS
ALPINE         CLOUDY    72  48  43 SW6       30.11S
ANDREWS        FAIR      73  67  80 SW13      29.96S
ARTESIA        CLEAR     68  14  12 W14       29.95S
BIG SPRING     CLOUDY    71  66  84 S14G21    29.95F
CARLSBAD       CLOUDY    67  18  15 W12       29.93S
DRYDEN           N/A     77  74  90 E7        29.94S
FORT STOCKTON  CLOUDY    75  68  78 S17       29.95S
GUAD PASS      NOT AVBL
HOBBS          CLOUDY    64  54  68 S9        29.97F
MARFA          CLOUDY    59  38  45 CALM      30.11R
MIDLAND AIRPK  CLOUDY    77  67  71 S14       29.94F
MIDLAND INTL   CLOUDY    76  67  73 S15       29.94S
ODESSA         MOCLDY    76  67  73 S17       29.95S
PECOS          CLOUDY    70  27  20 CALM      29.91S
PRESIDIO       FAIR      83  36  18 E3        29.95S
SEMINOLE       CLOUDY    71  64  78 S10       29.96S
SNYDER           N/A     71  67  87 S9        29.93S
WINK           CLOUDY    76  65  68 MISG      29.91R
$$
...OTHER STATIONS IN TEXAS...

CITY           SKY/WX    TMP DP  RH WIND       PRES   REMARKS
ABILENE        CLOUDY    76  72  87 S20G28    29.91S
AMARILLO       CLEAR     54  37  52 SW9       29.88F
AUSTIN         CLOUDY    77  74  90 S7        29.97R
BROWNSVILLE    CLOUDY    81  78  91 SE13      29.93S
CORPUS CHRISTI MOCLDY    80  77  90 SE12      29.94R
DALLAS FTW     MOCLDY    80  71  74 S18G32    29.91S
DEL RIO        CLOUDY    78  77  96 SE9       29.91F FOG
EL PASO        CLEAR     78  17  10 W23G33    30.00S
HOUSTON INT    MOCLDY    78  75  90 S7        30.00S
LUBBOCK        PTCLDY    74  60  61 S21G26    29.92S
SAN ANGELO     PTCLDY    77  71  82 S20G26    29.92F
SAN ANTONIO    CLOUDY    77  73  87 SE12      29.97F
WACO           PTCLDY    76  71  85 S12       29.95S
WICHITA FALLS  NOT AVBL
$$
...OTHER LOCATIONS IN NEW MEXICO...

CITY           SKY/WX    TMP DP  RH WIND       PRES   REMARKS
ALAMAGORDO     CLEAR     66  18  15 S9        30.02R
ALBUQUERQUE    CLEAR     66  12  12 CALM      30.06S
CANNON AFB     CLEAR     61  27  27 VRB5      29.95S
CLOVIS         CLEAR     61  30  31 W12       29.94S
HOLLOMAN AFB   CLEAR     71  18  13 SE5       30.00R
ROSWELL        CLEAR     62  20  19 SW8       29.94R
RUIDOSO          N/A     57  18  21 SW9       30.16S
SANTA FE       CLEAR     53  10  18 E6        30.09R
TRUTH OR CONSE CLEAR     64  20  18 W9        30.02S
TUCUMCARI      CLEAR     64  24  21 SW7       29.90R
$$

USA.gov is the U.S. government's official web portal to all federal, state and local government web resources and services.